User: anonymous   Login
Location: Unspecified
(0.0000°N, 0.0000°E)
Time: 10:34:43
(UTC+00:00)
Language:

GRACE-FO 1 - Orbit

View from above orbital plane
View from above orbital plane
View from above satellite
View from above satellite

Ground track
Ground track

The orbit data is extracted from the following two-line orbital elements,

1 43476U 18047A   21270.12578700 +.00000989  00000-0 +40251-4 0    01
2 43476  88.9778  74.2941 0014334 277.6164 162.3161 15.24359523186305
Epoch (UTC): 27 September 2021 03:01:07
Eccentricity: 0.0014334
inclination: 88.9778°
perigee height: 483 km
apogee height: 502 km
right ascension of ascending node: 74.2941°
argument of perigee: 277.6164°
revolutions per day: 15.24359523
mean anomaly at epoch: 162.3161°
orbit number at epoch: 18630

The dashed part of the orbit path shows where the satellite is in the earth's shadow,  

DLR